CW2274 Weather Reports


time (UTC)temp
C
wind
direction
speed
KPH
gust
KPH
rain 1hr
cm
rain 24hr
cm
rain mn
cm
humidity
%
barometer
mb
20260503232033 32 281 14.5 32.2 0.00 0.00 0.00 10 1010.5
20260503231528 32 258 14.5 40.2 0.00 0.00 0.00 10 1010.6
20260503231028 32 215 17.7 33.8 0.00 0.00 0.00 11 1010.4
20260503230524 32 260 11.3 27.4 0.00 0.00 0.00 11 1010.4
20260503230031 32 223 12.9 25.7 0.00 0.00 0.00 11 1010.4
20260503225533 32 232 12.9 25.7 0.00 0.00 0.00 10 1010.5
20260503225029 33 260 6.4 29.0 0.00 0.00 0.00 11 1010.6
20260503224525 32 209 14.5 29.0 0.00 0.00 0.00 11 1010.9
20260503224021 32 164 12.9 24.1 0.00 0.00 0.00 12 1010.9
20260503223520 32 196 11.3 24.1 0.00 0.00 0.00 12 1010.9
20260503223016 32 180 4.8 22.5 0.00 0.00 0.00 12 1010.8
20260503222532 33 233 12.9 27.4 0.00 0.00 0.00 12 1011.2
20260503222027 33 224 9.7 27.4 0.00 0.00 0.00 13 1011.2
20260503221523 33 223 9.7 27.4 0.00 0.00 0.00 11 1011.2
20260503221019 32 210 12.9 27.4 0.00 0.00 0.00 12 1011.0
20260503220032 33 225 12.9 32.2 0.00 0.00 0.00 12 1010.9
20260503215513 32 90 6.4 16.1 0.00 0.00 0.00 14 1010.8
20260503215029 32 155 4.8 9.7 0.00 0.00 0.00 13 1010.9
20260503214525 31 159 1.6 14.5 0.00 0.00 0.00 14 1011.1
20260503214020 32 83 4.8 14.5 0.00 0.00 0.00 14 1011.2
20260503213516 32 115 6.4 17.7 0.00 0.00 0.00 14 1011.4
20260503212527 32 120 16.1 27.4 0.00 0.00 0.00 14 1011.8
20260503212026 32 116 9.7 25.7 0.00 0.00 0.00 15 1011.6
20260503211522 31 118 12.9 25.7 0.00 0.00 0.00 16 1011.8
20260503211018 31 144 9.7 20.9 0.00 0.00 0.00 17 1011.9
20260503210514 31 75 6.4 20.9 0.00 0.00 0.00 20 1012.1
20260503210041 31 104 8.0 17.7 0.00 0.00 0.00 20 1012.2
20260503205522 31 108 6.4 25.7 0.00 0.00 0.00 20 1012.4
20260503205018 30 145 8.0 25.7 0.00 0.00 0.00 21 1012.3
20260503204518 30 127 8.0 20.9 0.00 0.00 0.00 21 1012.3
20260503204015 30 130 9.7 16.1 0.00 0.00 0.00 21 1012.4
20260503203531 30 140 6.4 17.7 0.00 0.00 0.00 21 1012.4
20260503203026 30 129 8.0 17.7 0.00 0.00 0.00 22 1012.4
20260503202522 30 112 4.8 12.9 0.00 0.00 0.00 22 1012.5
20260503202018 30 154 4.8 14.5 0.00 0.00 0.00 22 1012.7
20260503201514 29 169 1.6 14.5 0.00 0.00 0.00 23 1012.6
20260503201014 28 131 4.8 22.5 0.00 0.00 0.00 24 1012.8
20260503200528 29 98 12.9 24.1 0.00 0.00 0.00 24 1012.8
20260503200036 30 96 14.5 24.1 0.00 0.00 0.00 21 1012.9
20260503195518 30 129 6.4 12.9 0.00 0.00 0.00 22 1013.0
20260503195013 29 220 1.6 14.5 0.00 0.00 0.00 22 1013.0
20260503194530 30 137 3.2 19.3 0.00 0.00 0.00 22 1013.2
20260503194026 29 119 4.8 19.3 0.00 0.00 0.00 25 1013.2
20260503193525 28 159 8.0 19.3 0.00 0.00 0.00 25 1013.3
20260503193021 29 98 6.4 19.3 0.00 0.00 0.00 26 1013.4
20260503192517 29 159 1.6 17.7 0.00 0.00 0.00 26 1013.5
20260503192012 28 137 8.0 17.7 0.00 0.00 0.00 26 1013.8
20260503191528 28 100 6.4 17.7 0.00 0.00 0.00 27 1013.7
20260503191024 28 134 6.4 17.7 0.00 0.00 0.00 27 1013.8
20260503190519 28 126 4.8 17.7 0.00 0.00 0.00 27 1013.9
20260503190030 28 112 6.4 22.5 0.00 0.00 0.00 28 1013.8
20260503185531 28 129 4.8 22.5 0.00 0.00 0.00 28 1013.8
20260503185027 28 124 11.3 22.5 0.00 0.00 0.00 28 1013.8
20260503184523 28 120 12.9 22.5 0.00 0.00 0.00 28 1014.0
20260503184019 27 129 11.3 17.7 0.00 0.00 0.00 29 1014.3
20260503183515 27 125 4.8 20.9 0.00 0.00 0.00 29 1014.3
20260503183032 27 106 12.9 20.9 0.00 0.00 0.00 29 1014.4
20260503182513 27 122 8.0 19.3 0.00 0.00 0.00 30 1014.4
20260503182030 27 82 9.7 20.9 0.00 0.00 0.00 30 1014.6
20260503181526 27 129 14.5 20.9 0.00 0.00 0.00 30 1014.7
20260503181022 27 110 8.0 22.5 0.00 0.00 0.00 30 1014.7
20260503180518 27 102 9.7 22.5 0.00 0.00 0.00 30 1014.7
20260503180027 27 67 11.3 19.3 0.00 0.00 0.00 31 1014.8
20260503175528 26 125 11.3 19.3 0.00 0.00 0.00 31 1014.8
20260503175024 26 114 4.8 17.7 0.00 0.00 0.00 31 1014.9
20260503174525 26 108 9.7 19.3 0.00 0.00 0.00 31 1014.9
20260503174022 26 133 9.7 19.3 0.00 0.00 0.00 31 1015.1
20260503173518 26 118 8.0 19.3 0.00 0.00 0.00 31 1015.0
20260503173014 26 107 8.0 17.7 0.00 0.00 0.00 31 1015.2
20260503172530 26 135 8.0 17.7 0.00 0.00 0.00 31 1015.3
20260503172027 26 113 8.0 16.1 0.00 0.00 0.00 31 1015.3
20260503171524 26 91 9.7 22.5 0.00 0.00 0.00 32 1015.2
20260503171024 26 135 9.7 22.5 0.00 0.00 0.00 32 1015.3
20260503170519 26 95 11.3 22.5 0.00 0.00 0.00 32 1015.3
20260503150513 24 112 1.6 17.7 0.00 0.00 0.00 35 1015.4
20260503131027 23 106 8.0 20.9 0.00 0.00 0.00 36 1014.5
20260503130524 23 119 8.0 20.9 0.00 0.00 0.00 36 1014.6
20260503110518 23 129 6.4 17.7 0.00 0.00 0.00 36 1014.1
20260503090513 24 119 11.3 24.1 0.00 0.00 0.00 32 1014.4
20260503081517 24 144 3.2 14.5 0.00 0.00 0.00 32 1014.6
20260503081013 25 120 3.2 16.1 0.00 0.00 0.00 32 1014.6
20260503080529 25 104 4.8 19.3 0.00 0.00 0.00 32 1014.7
20260503072516 25 117 6.4 20.9 0.00 0.00 0.00 31 1014.5
20260503072012 25 129 8.0 22.5 0.00 0.00 0.00 31 1014.7
20260503071527 25 119 9.7 22.5 0.00 0.00 0.00 30 1014.7
20260503071023 25 125 8.0 25.7 0.00 0.00 0.00 30 1014.6
20260503070523 25 76 11.3 25.7 0.00 0.00 0.00 30 1014.7
20260503055023 26 129 4.8 20.9 0.00 0.00 0.00 28 1013.8
20260503054519 26 114 4.8 17.7 0.00 0.00 0.00 28 1013.9
20260503054015 26 81 4.8 17.7 0.00 0.00 0.00 28 1013.9
20260503053511 26 125 8.0 19.3 0.00 0.00 0.00 28 1013.8
20260503053027 26 117 9.7 19.3 0.00 0.00 0.00 27 1013.9
20260503052523 26 113 8.0 19.3 0.00 0.00 0.00 27 1013.9
20260503052018 26 97 6.4 19.3 0.00 0.00 0.00 27 1014.0
20260503051518 26 120 4.8 20.9 0.00 0.00 0.00 27 1014.1
20260503051013 26 76 9.7 22.5 0.00 0.00 0.00 27 1014.0
20260503050528 26 87 8.0 20.9 0.00 0.00 0.00 27 1013.8
20260503050021 26 53 6.4 20.9 0.00 0.00 0.00 27 1013.9
20260503045517 26 89 9.7 22.5 0.00 0.00 0.00 26 1013.8
20260503045013 26 103 12.9 22.5 0.00 0.00 0.00 26 1013.7
20260503044528 26 102 11.3 17.7 0.00 0.00 0.00 26 1013.8
20260503044024 26 133 8.0 22.5 0.00 0.00 0.00 26 1013.7
20260503043524 26 70 8.0 22.5 0.00 0.00 0.00 26 1013.7
20260503043020 26 94 6.4 19.3 0.00 0.00 0.00 26 1013.7
20260503042515 26 99 9.7 19.3 0.00 0.00 0.00 25 1013.6
20260503042011 26 75 6.4 17.7 0.00 0.00 0.00 25 1013.4
20260503041528 26 88 9.7 27.4 0.00 0.00 0.00 25 1013.3
20260503041024 27 91 12.9 27.4 0.00 0.00 0.00 25 1013.1
20260503040521 27 102 11.3 22.5 0.00 0.00 0.00 25 1013.1
20260503040020 27 78 3.2 25.7 0.00 0.00 0.00 24 1013.0
20260503035516 27 134 9.7 25.7 0.00 0.00 0.00 25 1013.0
20260503035011 27 86 6.4 20.9 0.00 0.00 0.00 24 1012.8
20260503034527 27 77 8.0 20.9 0.00 0.00 0.00 24 1012.8
20260503034023 27 74 9.7 20.9 0.00 0.00 0.00 24 1012.8
20260503033519 27 84 6.4 24.1 0.00 0.00 0.00 24 1012.8
20260503033014 27 92 11.3 24.1 0.00 0.00 0.00 24 1012.9
20260503032514 27 82 4.8 19.3 0.00 0.00 0.00 23 1012.8
20260503032030 27 75 6.4 14.5 0.00 0.00 0.00 23 1012.8
20260503031525 27 84 3.2 14.5 0.00 0.00 0.00 23 1012.6
20260503031021 27 97 4.8 17.7 0.00 0.00 0.00 23 1012.6
20260503030517 27 65 6.4 17.7 0.00 0.00 0.00 23 1012.5
20260503030032 27 73 3.2 12.9 0.00 0.00 0.00 22 1012.5
20260503025526 28 109 3.2 12.9 0.00 0.00 0.00 22 1012.4
20260503025026 28 69 1.6 11.3 0.00 0.00 0.00 22 1012.4
20260503024522 28 75 1.6 20.9 0.00 0.00 0.00 22 1012.3
20260503024017 28 93 8.0 20.9 0.00 0.00 0.00 21 1012.1
20260503023533 28 113 8.0 17.7 0.00 0.00 0.00 21 1012.2
20260503023029 28 123 8.0 12.9 0.00 0.00 0.00 22 1012.1
20260503022525 28 100 4.8 12.9 0.00 0.00 0.00 21 1012.1
20260503022021 28 88 4.8 16.1 0.00 0.00 0.00 21 1012.1
20260503021519 28 116 8.0 16.1 0.00 0.00 0.00 21 1012.1
20260503021015 28 88 3.2 11.3 0.00 0.00 0.00 21 1012.0
20260503020532 28 94 3.2 14.5 0.00 0.00 0.00 20 1012.0
20260503020026 28 98 4.8 14.5 0.00 0.00 0.00 20 1012.1
20260503015522 29 109 3.2 11.3 0.00 0.00 0.00 20 1012.1
20260503015019 29 93 4.8 14.5 0.00 0.00 0.00 20 1012.2
20260503014515 29 93 4.8 14.5 0.00 0.00 0.00 20 1012.2
20260503014015 29 88 3.2 11.3 0.00 0.00 0.00 20 1012.3
20260503013530 29 81 4.8 14.5 0.00 0.00 0.00 20 1012.2
20260503013026 29 110 6.4 14.5 0.00 0.00 0.00 20 1012.2
20260503012522 29 79 4.8 12.9 0.00 0.00 0.00 19 1012.2
20260503012018 29 96 4.8 12.9 0.00 0.00 0.00 18 1012.2
20260503011534 29 65 1.6 4.8 0.00 0.00 0.00 18 1012.3
20260503011029 29 114 0.0 4.8 0.00 0.00 0.00 18 1012.3
20260503010525 30 115 0.0 4.8 0.00 0.00 0.00 18 1012.3
20260503010024 30 33 0.0 4.8 0.00 0.00 0.00 18 1012.3
20260503005520 30 100 0.0 1.6 0.00 0.00 0.00 18 1012.4
20260503005015 30 100 0.0 6.4 0.00 0.00 0.00 18 1012.3
20260503004531 30 100 1.6 9.7 0.00 0.00 0.00 18 1012.4
20260503004027 30 145 3.2 6.4 0.00 0.00 0.00 18 1012.3
20260503003522 30 102 1.6 8.0 0.00 0.00 0.00 18 1012.1
20260503003019 30 95 1.6 9.7 0.00 0.00 0.00 18 1012.1
20260503002520 30 124 6.4 12.9 0.00 0.00 0.00 18 1012.2
20260503002016 30 78 6.4 14.5 0.00 0.00 0.00 18 1012.1
20260503001533 30 63 4.8 14.5 0.00 0.00 0.00 18 1012.2
20260503001030 30 102 3.2 8.0 0.00 0.00 0.00 17 1012.2
20260503000525 30 333 1.6 11.3 0.00 0.00 0.00 18 1012.3
20260503000020 30 69 0.0 11.3 0.00 0.00 0.00 18 1012.2
20260502235517 30 173 0.0 16.1 0.00 0.00 0.00 17 1012.2
20260502235018 30 127 6.4 16.1 0.00 0.00 0.00 17 1012.3
20260502234515 30 82 0.0 8.0 0.00 0.00 0.00 17 1012.2